Time,TemperatureF,DewpointF,PressureIn,WindDirection,WindDirectionDegrees,WindSpeedMPH,WindSpeedGustMPH,Humidity,HourlyPrecipIn,Conditions,Clouds,dailyrainin,SoftwareType,DateUTC
2013-01-29 00:03:00,30.7,30.7,29.61,SE,127,0.0,0.0,100,0.00,,SKC,0.00,VWS V14.01,2013-01-29 06:03:00,
2013-01-29 00:08:00,30.7,30.7,29.61,SE,126,0.0,0.0,100,0.00,,SKC,0.00,VWS V14.01,2013-01-29 06:08:00,
2013-01-29 00:13:00,30.7,30.7,29.61,SE,124,0.0,0.0,100,0.00,,SKC,0.00,VWS V14.01,2013-01-29 06:13:00,
2013-01-29 00:18:00,30.7,30.7,29.60,SE,124,0.0,0.0,100,0.00,,SKC,0.00,VWS V14.01,2013-01-29 06:18:00,
2013-01-29 00:23:00,30.7,30.7,29.60,SE,124,0.0,0.0,100,0.00,,SKC,0.00,VWS V14.01,2013-01-29 06:23:00,
2013-01-29 00:27:00,30.7,30.7,29.60,SE,124,0.0,0.0,100,0.00,,SKC,0.00,VWS V14.01,2013-01-29 06:27:00,
2013-01-29 00:32:00,30.7,30.7,29.60,SE,124,0.0,0.0,100,0.00,,SKC,0.00,VWS V14.01,2013-01-29 06:32:00,
2013-01-29 00:37:00,30.7,30.7,29.60,SE,124,0.0,0.0,100,0.00,,SKC,0.00,VWS V14.01,2013-01-29 06:37:00,
2013-01-29 00:42:00,30.6,30.6,29.60,East,99,0.0,2.0,100,0.00,,SKC,0.00,VWS V14.01,2013-01-29 06:42:00,
2013-01-29 00:47:00,30.6,30.6,29.59,East,96,0.0,2.0,100,0.00,,SKC,0.00,VWS V14.01,2013-01-29 06:47:00,
2013-01-29 00:52:00,30.6,30.6,29.59,ESE,103,1.0,2.0,100,0.00,,SKC,0.00,VWS V14.01,2013-01-29 06:52:00,
2013-01-29 00:57:00,30.6,30.6,29.59,East,99,1.0,2.0,100,0.00,,SKC,0.00,VWS V14.01,2013-01-29 06:57:00,
2013-01-29 01:02:00,30.4,30.4,29.57,East,100,0.0,3.0,100,0.00,,SKC,0.00,VWS V14.01,2013-01-29 07:02:00,
2013-01-29 01:07:00,30.4,30.4,29.57,East,92,1.0,3.0,100,0.00,,SKC,0.00,VWS V14.01,2013-01-29 07:07:00,
2013-01-29 01:12:00,30.4,30.4,29.57,East,99,0.0,0.0,100,0.00,,SKC,0.00,VWS V14.01,2013-01-29 07:12:00,
2013-01-29 01:17:00,30.3,30.3,29.56,ESE,103,0.0,0.0,100,0.00,,SKC,0.00,VWS V14.01,2013-01-29 07:17:00,
2013-01-29 01:22:00,30.3,30.3,29.56,ESE,114,0.0,0.0,100,0.00,,SKC,0.00,VWS V14.01,2013-01-29 07:22:00,
2013-01-29 01:27:00,30.3,30.3,29.56,East,90,0.0,0.0,100,0.00,,SKC,0.00,VWS V14.01,2013-01-29 07:27:00,
2013-01-29 01:32:00,30.3,30.3,29.57,East,90,0.0,0.0,100,0.00,,SKC,0.00,VWS V14.01,2013-01-29 07:32:00,
2013-01-29 01:37:00,30.4,30.4,29.57,East,85,0.0,0.0,100,0.00,,SKC,0.00,VWS V14.01,2013-01-29 07:37:00,
2013-01-29 01:42:00,30.4,30.4,29.57,East,85,0.0,0.0,100,0.00,,SKC,0.00,VWS V14.01,2013-01-29 07:42:00,
2013-01-29 01:47:00,30.4,30.4,29.56,East,83,0.0,0.0,100,0.00,,SKC,0.00,VWS V14.01,2013-01-29 07:47:00,
2013-01-29 01:52:00,30.4,30.4,29.56,East,82,0.0,0.0,100,0.00,,SKC,0.00,VWS V14.01,2013-01-29 07:52:00,
2013-01-29 01:57:00,30.4,30.4,29.56,East,80,0.0,0.0,100,0.00,,SKC,0.00,VWS V14.01,2013-01-29 07:57:00,
2013-01-29 02:02:00,30.4,30.4,29.56,East,85,0.0,0.0,100,0.00,,SKC,0.00,VWS V14.01,2013-01-29 08:02:00,
2013-01-29 02:07:00,30.4,30.4,29.56,ENE,78,0.0,0.0,100,0.00,,SKC,0.00,VWS V14.01,2013-01-29 08:07:00,
2013-01-29 02:12:00,30.4,30.4,29.56,ENE,78,0.0,0.0,100,0.00,,SKC,0.00,VWS V14.01,2013-01-29 08:12:00,
2013-01-29 02:17:00,30.3,30.3,29.56,ENE,76,0.0,0.0,100,0.00,,SKC,0.00,VWS V14.01,2013-01-29 08:17:00,
2013-01-29 02:22:00,30.3,30.3,29.56,East,82,0.0,0.0,100,0.00,,SKC,0.00,VWS V14.01,2013-01-29 08:22:00,
2013-01-29 02:27:00,30.3,30.3,29.56,East,82,0.0,0.0,100,0.00,,SKC,0.00,VWS V14.01,2013-01-29 08:27:00,
2013-01-29 02:32:00,30.4,30.4,29.58,ENE,61,0.0,0.0,100,0.00,,SKC,0.00,VWS V14.01,2013-01-29 08:32:00,
2013-01-29 02:37:00,30.4,30.4,29.58,ENE,61,0.0,0.0,100,0.00,,SKC,0.00,VWS V14.01,2013-01-29 08:37:00,
2013-01-29 02:42:00,30.4,30.4,29.58,ENE,61,0.0,0.0,100,0.00,,SKC,0.00,VWS V14.01,2013-01-29 08:42:00,
2013-01-29 02:47:00,30.4,30.4,29.57,ENE,61,0.0,0.0,100,0.00,,SKC,0.00,VWS V14.01,2013-01-29 08:47:00,
2013-01-29 02:52:00,30.4,30.4,29.57,ENE,65,0.0,0.0,100,0.00,,SKC,0.00,VWS V14.01,2013-01-29 08:52:00,
2013-01-29 02:57:00,30.4,30.4,29.57,ENE,65,0.0,0.0,100,0.00,,SKC,0.00,VWS V14.01,2013-01-29 08:57:00,
2013-01-29 03:02:00,30.4,30.4,29.57,ENE,68,0.0,0.0,100,0.00,,SKC,0.00,VWS V14.01,2013-01-29 09:02:00,
2013-01-29 03:07:00,30.4,30.4,29.57,ENE,66,0.0,0.0,100,0.00,,SKC,0.00,VWS V14.01,2013-01-29 09:07:00,
2013-01-29 03:12:00,30.4,30.4,29.57,ENE,65,0.0,0.0,100,0.00,,SKC,0.00,VWS V14.01,2013-01-29 09:12:00,
2013-01-29 03:17:00,30.4,30.4,29.55,ENE,66,0.0,0.0,100,0.00,,SKC,0.00,VWS V14.01,2013-01-29 09:17:00,
2013-01-29 03:22:00,30.4,30.4,29.55,ENE,66,0.0,0.0,100,0.00,,SKC,0.00,VWS V14.01,2013-01-29 09:22:00,
2013-01-29 03:27:00,30.4,30.4,29.55,ENE,64,0.0,0.0,100,0.00,,SKC,0.00,VWS V14.01,2013-01-29 09:27:00,
2013-01-29 03:32:00,30.4,30.4,29.55,ENE,64,0.0,0.0,100,0.00,,SKC,0.00,VWS V14.01,2013-01-29 09:32:00,
2013-01-29 03:37:00,30.4,30.4,29.55,ENE,64,0.0,0.0,100,0.00,,SKC,0.00,VWS V14.01,2013-01-29 09:37:00,
2013-01-29 03:42:00,30.6,30.6,29.55,ENE,64,0.0,0.0,100,0.00,,SKC,0.00,VWS V14.01,2013-01-29 09:42:00,
2013-01-29 03:47:00,30.4,30.4,29.55,ENE,64,0.0,0.0,100,0.00,,SKC,0.00,VWS V14.01,2013-01-29 09:47:00,
2013-01-29 03:52:00,30.4,30.4,29.55,ENE,64,0.0,0.0,100,0.00,,SKC,0.00,VWS V14.01,2013-01-29 09:52:00,
2013-01-29 03:57:00,30.4,30.4,29.55,ENE,64,0.0,0.0,100,0.00,,SKC,0.00,VWS V14.01,2013-01-29 09:57:00,
2013-01-29 04:02:00,30.4,30.4,29.56,ENE,64,0.0,0.0,100,0.00,,SKC,0.00,VWS V14.01,2013-01-29 10:02:00,
2013-01-29 04:07:00,30.4,30.4,29.56,ENE,64,0.0,0.0,100,0.00,,SKC,0.00,VWS V14.01,2013-01-29 10:07:00,
2013-01-29 04:12:00,30.4,30.4,29.56,ENE,64,0.0,0.0,100,0.00,,SKC,0.00,VWS V14.01,2013-01-29 10:12:00,
2013-01-29 04:17:00,30.4,30.4,29.56,ENE,64,0.0,0.0,100,0.00,,SKC,0.00,VWS V14.01,2013-01-29 10:17:00,
2013-01-29 04:22:00,30.4,30.4,29.56,ENE,64,0.0,0.0,100,0.00,,SKC,0.00,VWS V14.01,2013-01-29 10:22:00,
2013-01-29 04:27:00,30.3,30.3,29.56,ENE,64,0.0,0.0,100,0.00,,SKC,0.00,VWS V14.01,2013-01-29 10:27:00,
2013-01-29 04:32:00,30.3,30.3,29.54,ENE,64,0.0,0.0,100,0.00,,SKC,0.00,VWS V14.01,2013-01-29 10:32:00,
2013-01-29 04:37:00,30.3,30.3,29.54,ENE,64,0.0,0.0,100,0.00,,SKC,0.00,VWS V14.01,2013-01-29 10:37:00,
2013-01-29 04:42:00,30.3,30.3,29.54,ENE,64,0.0,0.0,100,0.00,,SKC,0.00,VWS V14.01,2013-01-29 10:42:00,
2013-01-29 04:47:00,30.3,30.3,29.55,ENE,64,0.0,0.0,100,0.00,,SKC,0.00,VWS V14.01,2013-01-29 10:47:00,
2013-01-29 04:52:00,30.3,30.3,29.55,ENE,58,0.0,0.0,100,0.00,,SKC,0.00,VWS V14.01,2013-01-29 10:52:00,
2013-01-29 04:57:00,30.3,30.3,29.55,ENE,58,0.0,0.0,100,0.00,,SKC,0.00,VWS V14.01,2013-01-29 10:57:00,
2013-01-29 05:02:00,30.3,30.3,29.55,ENE,58,0.0,0.0,100,0.00,,SKC,0.00,VWS V14.01,2013-01-29 11:02:00,
2013-01-29 05:07:00,30.3,30.3,29.55,ENE,58,0.0,0.0,100,0.00,,SKC,0.00,VWS V14.01,2013-01-29 11:07:00,
2013-01-29 05:12:00,30.4,30.4,29.55,ENE,58,0.0,0.0,100,0.00,,SKC,0.00,VWS V14.01,2013-01-29 11:12:00,
2013-01-29 05:17:00,30.4,30.4,29.55,ENE,58,0.0,0.0,100,0.00,,SKC,0.00,VWS V14.01,2013-01-29 11:17:00,
2013-01-29 05:22:00,30.4,30.4,29.55,ENE,58,0.0,0.0,100,0.00,,SKC,0.00,VWS V14.01,2013-01-29 11:22:00,
2013-01-29 05:27:00,30.4,30.4,29.55,NNE,18,0.0,0.0,100,0.00,,SKC,0.00,VWS V14.01,2013-01-29 11:27:00,
2013-01-29 05:32:00,30.6,30.6,29.54,NNE,18,0.0,0.0,100,0.00,,SKC,0.00,VWS V14.01,2013-01-29 11:32:00,
2013-01-29 05:37:00,30.6,30.6,29.54,NNE,18,0.0,0.0,100,0.00,,SKC,0.00,VWS V14.01,2013-01-29 11:37:00,
2013-01-29 05:42:00,30.6,30.6,29.54,NNE,18,0.0,0.0,100,0.00,,SKC,0.00,VWS V14.01,2013-01-29 11:42:00,
2013-01-29 05:47:00,30.6,30.6,29.52,NNE,20,0.0,0.0,100,0.00,,SKC,0.00,VWS V14.01,2013-01-29 11:47:00,
2013-01-29 05:52:00,30.6,30.6,29.52,North,10,0.0,0.0,100,0.00,,SKC,0.00,VWS V14.01,2013-01-29 11:52:00,
2013-01-29 05:57:00,30.6,30.6,29.52,North,10,0.0,0.0,100,0.00,,SKC,0.00,VWS V14.01,2013-01-29 11:57:00,
2013-01-29 06:02:00,30.6,30.6,29.51,North,6,0.0,0.0,100,0.00,,SKC,0.00,VWS V14.01,2013-01-29 12:02:00,
2013-01-29 06:07:00,30.6,30.6,29.51,NNE,20,0.0,0.0,100,0.00,,SKC,0.00,VWS V14.01,2013-01-29 12:07:00,
2013-01-29 06:12:00,30.6,30.6,29.51,North,10,0.0,0.0,100,0.00,,SKC,0.00,VWS V14.01,2013-01-29 12:12:00,
2013-01-29 06:17:00,30.6,30.6,29.51,North,11,0.0,0.0,100,0.00,,SKC,0.00,VWS V14.01,2013-01-29 12:17:00,
2013-01-29 06:22:00,30.6,30.6,29.51,North,0,0.0,0.0,100,0.00,,SKC,0.00,VWS V14.01,2013-01-29 12:22:00,
2013-01-29 06:27:00,30.6,30.6,29.51,North,7,0.0,0.0,100,0.00,,SKC,0.00,VWS V14.01,2013-01-29 12:27:00,
2013-01-29 06:32:00,30.6,30.6,29.51,North,6,0.0,0.0,100,0.00,,SKC,0.00,VWS V14.01,2013-01-29 12:32:00,
2013-01-29 06:37:00,30.6,30.6,29.51,NNE,18,0.0,0.0,100,0.00,,SKC,0.00,VWS V14.01,2013-01-29 12:37:00,
2013-01-29 06:42:00,30.6,30.6,29.51,NNE,13,0.0,0.0,100,0.00,,SKC,0.00,VWS V14.01,2013-01-29 12:42:00,
2013-01-29 06:47:00,30.6,30.6,29.51,North,0,0.0,0.0,100,0.00,,SKC,0.00,VWS V14.01,2013-01-29 12:47:00,
2013-01-29 06:52:00,30.6,30.6,29.51,North,354,0.0,0.0,100,0.00,,SKC,0.00,VWS V14.01,2013-01-29 12:52:00,
2013-01-29 06:57:00,30.4,30.4,29.51,NNW,344,0.0,0.0,100,0.00,,SKC,0.00,VWS V14.01,2013-01-29 12:57:00,
2013-01-29 07:02:00,30.6,30.6,29.53,NNW,343,0.0,0.0,100,0.00,,SKC,0.00,VWS V14.01,2013-01-29 13:02:00,
2013-01-29 07:07:00,30.6,30.6,29.53,NNW,339,0.0,0.0,100,0.00,,SKC,0.00,VWS V14.01,2013-01-29 13:07:00,
2013-01-29 07:12:00,30.6,30.6,29.53,NNW,347,0.0,0.0,100,0.00,,SKC,0.00,VWS V14.01,2013-01-29 13:12:00,
2013-01-29 07:17:00,30.7,30.7,29.55,NNW,336,0.0,0.0,100,0.00,,SKC,0.00,VWS V14.01,2013-01-29 13:17:00,
2013-01-29 07:22:00,30.9,30.9,29.55,NNW,333,0.0,0.0,100,0.00,,SKC,0.00,VWS V14.01,2013-01-29 13:22:00,
2013-01-29 07:27:00,30.9,30.9,29.55,North,0,0.0,0.0,100,0.00,,SKC,0.00,VWS V14.01,2013-01-29 13:27:00,
2013-01-29 07:32:00,31.0,31.0,29.57,North,357,0.0,0.0,100,0.00,,SKC,0.00,VWS V14.01,2013-01-29 13:32:00,
2013-01-29 07:37:00,31.0,31.0,29.57,NW,322,0.0,0.0,100,0.00,,SKC,0.00,VWS V14.01,2013-01-29 13:37:00,
2013-01-29 07:42:00,31.2,31.2,29.57,North,350,0.0,0.0,100,0.00,,SKC,0.00,VWS V14.01,2013-01-29 13:42:00,
2013-01-29 07:47:00,31.2,31.2,29.58,North,357,0.0,0.0,100,0.00,,SKC,0.00,VWS V14.01,2013-01-29 13:47:00,
2013-01-29 07:52:00,31.3,31.3,29.58,North,350,0.0,0.0,100,0.00,,SKC,0.00,VWS V14.01,2013-01-29 13:52:00,
2013-01-29 07:57:00,31.3,31.3,29.58,North,356,0.0,0.0,100,0.00,,SKC,0.00,VWS V14.01,2013-01-29 13:57:00,
2013-01-29 08:02:00,31.3,31.3,29.58,North,357,0.0,0.0,100,0.00,,SKC,0.00,VWS V14.01,2013-01-29 14:02:00,
2013-01-29 08:07:00,31.3,31.3,29.58,North,3,0.0,0.0,100,0.00,,SKC,0.00,VWS V14.01,2013-01-29 14:07:00,
2013-01-29 08:12:00,31.5,31.5,29.58,North,6,0.0,0.0,100,0.00,,SKC,0.00,VWS V14.01,2013-01-29 14:12:00,
2013-01-29 08:17:00,31.5,31.5,29.59,North,7,0.0,0.0,100,0.00,,SKC,0.00,VWS V14.01,2013-01-29 14:17:00,
2013-01-29 08:21:00,31.5,31.5,29.59,North,4,0.0,0.0,100,0.00,,SKC,0.00,VWS V14.01,2013-01-29 14:21:00,
2013-01-29 08:26:00,31.5,31.5,29.59,North,3,0.0,0.0,100,0.00,,SKC,0.00,VWS V14.01,2013-01-29 14:26:00,
2013-01-29 08:31:00,31.5,31.5,29.59,North,11,0.0,0.0,100,0.00,,SKC,0.00,VWS V14.01,2013-01-29 14:31:00,
2013-01-29 08:36:00,31.5,31.5,29.59,North,4,0.0,0.0,100,0.00,,SKC,0.00,VWS V14.01,2013-01-29 14:36:00,
2013-01-29 08:41:00,31.3,31.3,29.59,NNW,347,0.0,0.0,100,0.00,,SKC,0.00,VWS V14.01,2013-01-29 14:41:00,
2013-01-29 08:46:00,31.3,31.3,29.59,North,0,0.0,0.0,100,0.00,,SKC,0.00,VWS V14.01,2013-01-29 14:46:00,
2013-01-29 08:51:00,31.3,31.3,29.59,North,357,0.0,0.0,100,0.00,,SKC,0.00,VWS V14.01,2013-01-29 14:51:00,
2013-01-29 08:56:00,31.3,31.3,29.59,North,356,0.0,0.0,100,0.00,,SKC,0.00,VWS V14.01,2013-01-29 14:56:00,
2013-01-29 09:01:00,31.3,31.3,29.60,North,0,0.0,0.0,100,0.00,,SKC,0.00,VWS V14.01,2013-01-29 15:01:00,
2013-01-29 09:06:00,31.3,31.3,29.60,North,349,0.0,0.0,100,0.00,,SKC,0.00,VWS V14.01,2013-01-29 15:06:00,
2013-01-29 09:11:00,31.2,31.2,29.60,North,3,0.0,0.0,100,0.00,,SKC,0.00,VWS V14.01,2013-01-29 15:11:00,
2013-01-29 09:16:00,31.0,31.0,29.59,North,1,0.0,0.0,100,0.00,,SKC,0.00,VWS V14.01,2013-01-29 15:16:00,
2013-01-29 09:21:00,31.0,31.0,29.59,North,357,0.0,0.0,100,0.00,,SKC,0.00,VWS V14.01,2013-01-29 15:21:00,
2013-01-29 09:26:00,31.0,31.0,29.59,NNE,17,0.0,0.0,100,0.00,,SKC,0.00,VWS V14.01,2013-01-29 15:26:00,
2013-01-29 09:31:00,31.2,31.2,29.58,NNE,21,0.0,0.0,100,0.00,,SKC,0.00,VWS V14.01,2013-01-29 15:31:00,
2013-01-29 09:36:00,31.2,31.2,29.58,NNE,28,0.0,0.0,100,0.00,,SKC,0.00,VWS V14.01,2013-01-29 15:36:00,
2013-01-29 09:41:00,31.2,31.2,29.58,NE,55,0.0,0.0,100,0.00,,SKC,0.00,VWS V14.01,2013-01-29 15:41:00,
2013-01-29 09:46:00,31.2,31.0,29.58,NNE,25,0.0,0.0,99,0.00,,SKC,0.00,VWS V14.01,2013-01-29 15:46:00,
2013-01-29 09:51:00,31.3,30.8,29.58,NE,37,0.0,0.0,98,0.00,,SKC,0.00,VWS V14.01,2013-01-29 15:51:00,
2013-01-29 09:56:00,31.5,31.0,29.58,NE,55,0.0,0.0,98,0.00,,SKC,0.00,VWS V14.01,2013-01-29 15:56:00,
2013-01-29 10:01:00,31.9,31.4,29.60,NE,35,0.0,0.0,98,0.00,,SKC,0.00,VWS V14.01,2013-01-29 16:01:00,
2013-01-29 10:06:00,31.8,31.0,29.60,North,6,0.0,0.0,97,0.00,,SKC,0.00,VWS V14.01,2013-01-29 16:06:00,
2013-01-29 10:11:00,31.8,31.0,29.60,North,0,5.0,6.0,97,0.01,,SKC,0.01,VWS V14.01,2013-01-29 16:11:00,
2013-01-29 10:16:00,31.8,31.0,29.60,North,0,5.0,7.0,97,0.01,,SKC,0.01,VWS V14.01,2013-01-29 16:16:00,
2013-01-29 10:21:00,31.8,31.0,29.60,NNW,340,5.0,12.0,97,0.02,,SKC,0.02,VWS V14.01,2013-01-29 16:21:00,
2013-01-29 10:26:00,31.6,30.9,29.60,NNW,328,7.0,12.0,97,0.02,,SKC,0.02,VWS V14.01,2013-01-29 16:26:00,
2013-01-29 10:31:00,31.6,30.9,29.60,North,7,8.0,8.0,97,0.02,,SKC,0.02,VWS V14.01,2013-01-29 16:31:00,
2013-01-29 10:36:00,31.5,30.8,29.60,North,356,6.0,10.0,97,0.02,,SKC,0.02,VWS V14.01,2013-01-29 16:36:00,
2013-01-29 10:41:00,31.5,30.5,29.60,North,353,8.0,8.0,96,0.02,,SKC,0.02,VWS V14.01,2013-01-29 16:41:00,
2013-01-29 10:46:00,31.5,30.5,29.63,NNE,17,2.0,12.0,96,0.02,,SKC,0.02,VWS V14.01,2013-01-29 16:46:00,
2013-01-29 10:51:00,31.5,30.5,29.63,North,359,3.0,6.0,96,0.02,,SKC,0.02,VWS V14.01,2013-01-29 16:51:00,
2013-01-29 10:56:00,31.3,30.0,29.63,North,3,9.0,11.0,95,0.02,,SKC,0.02,VWS V14.01,2013-01-29 16:56:00,
2013-01-29 11:01:00,31.2,29.7,29.65,North,359,8.0,8.0,94,0.02,,SKC,0.02,VWS V14.01,2013-01-29 17:01:00,
2013-01-29 11:06:00,31.3,29.8,29.65,North,3,5.0,8.0,94,0.02,,SKC,0.02,VWS V14.01,2013-01-29 17:06:00,
2013-01-29 11:11:00,31.3,29.8,29.65,NNW,339,2.0,6.0,94,0.01,,SKC,0.02,VWS V14.01,2013-01-29 17:11:00,
2013-01-29 11:16:00,31.5,29.7,29.66,North,0,4.0,8.0,93,0.01,,SKC,0.02,VWS V14.01,2013-01-29 17:16:00,
2013-01-29 11:21:00,31.5,29.7,29.66,North,353,7.0,8.0,93,0.01,,SKC,0.02,VWS V14.01,2013-01-29 17:21:00,
2013-01-29 11:26:00,31.8,29.5,29.66,North,0,6.0,10.0,91,0.01,,SKC,0.02,VWS V14.01,2013-01-29 17:26:00,
2013-01-29 11:31:00,32.1,29.8,29.65,North,1,5.0,9.0,91,0.01,,SKC,0.03,VWS V14.01,2013-01-29 17:31:00,
2013-01-29 11:36:00,32.2,29.6,29.65,North,0,9.0,10.0,90,0.01,,SKC,0.03,VWS V14.01,2013-01-29 17:36:00,
2013-01-29 11:41:00,32.2,29.6,29.65,North,353,7.0,8.0,90,0.01,,SKC,0.03,VWS V14.01,2013-01-29 17:41:00,
2013-01-29 11:46:00,32.2,29.6,29.64,North,357,5.0,11.0,90,0.01,,SKC,0.03,VWS V14.01,2013-01-29 17:46:00,
2013-01-29 11:51:00,32.4,29.8,29.64,North,354,7.0,12.0,90,0.01,,SKC,0.03,VWS V14.01,2013-01-29 17:51:00,
2013-01-29 11:56:00,32.5,29.9,29.64,NNW,340,9.0,12.0,90,0.01,,SKC,0.03,VWS V14.01,2013-01-29 17:56:00,
2013-01-29 12:01:00,32.2,29.3,29.65,North,0,8.0,10.0,89,0.01,,SKC,0.03,VWS V14.01,2013-01-29 18:01:00,
2013-01-29 12:06:00,32.7,29.8,29.65,North,0,5.0,10.0,89,0.02,,SKC,0.04,VWS V14.01,2013-01-29 18:06:00,
2013-01-29 12:11:00,32.7,29.8,29.65,North,356,6.0,7.0,89,0.02,,SKC,0.04,VWS V14.01,2013-01-29 18:11:00,
2013-01-29 12:16:00,32.5,29.6,29.64,North,0,5.0,13.0,89,0.02,,SKC,0.04,VWS V14.01,2013-01-29 18:16:00,
2013-01-29 12:21:00,32.2,29.3,29.64,North,11,7.0,8.0,89,0.02,,SKC,0.04,VWS V14.01,2013-01-29 18:21:00,
2013-01-29 12:26:00,32.1,29.2,29.64,North,0,7.0,11.0,89,0.02,,SKC,0.04,VWS V14.01,2013-01-29 18:26:00,
2013-01-29 12:31:00,32.1,29.0,29.63,North,0,10.0,11.0,88,0.01,,SKC,0.04,VWS V14.01,2013-01-29 18:31:00,
2013-01-29 12:36:00,32.2,28.8,29.63,NNE,13,6.0,12.0,87,0.01,,SKC,0.04,VWS V14.01,2013-01-29 18:36:00,
2013-01-29 12:41:00,31.9,28.2,29.63,North,4,5.0,11.0,86,0.01,,SKC,0.04,VWS V14.01,2013-01-29 18:41:00,
2013-01-29 12:46:00,32.2,28.5,29.62,North,357,12.0,16.0,86,0.01,,SKC,0.04,VWS V14.01,2013-01-29 18:46:00,
2013-01-29 12:51:00,32.2,28.2,29.62,NNW,347,7.0,13.0,85,0.01,,SKC,0.04,VWS V14.01,2013-01-29 18:51:00,
2013-01-29 12:56:00,32.5,28.5,29.62,North,359,7.0,13.0,85,0.01,,SKC,0.04,VWS V14.01,2013-01-29 18:56:00,
2013-01-29 13:01:00,32.5,28.5,29.62,North,0,7.0,8.0,85,0.01,,SKC,0.04,VWS V14.01,2013-01-29 19:01:00,
2013-01-29 13:06:00,32.8,28.8,29.62,North,356,7.0,10.0,85,0.01,,SKC,0.04,VWS V14.01,2013-01-29 19:06:00,
2013-01-29 13:11:00,32.9,28.9,29.62,North,8,7.0,7.0,85,0.00,,SKC,0.04,VWS V14.01,2013-01-29 19:11:00,
2013-01-29 13:16:00,32.9,28.6,29.63,NNW,347,5.0,8.0,84,0.00,,SKC,0.04,VWS V14.01,2013-01-29 19:16:00,
2013-01-29 13:21:00,32.9,28.6,29.63,NNE,31,5.0,8.0,84,0.00,,SKC,0.04,VWS V14.01,2013-01-29 19:21:00,
2013-01-29 13:26:00,32.9,28.3,29.63,North,0,5.0,8.0,83,0.00,,SKC,0.04,VWS V14.01,2013-01-29 19:26:00,
2013-01-29 13:31:00,32.9,28.6,29.63,North,11,5.0,10.0,84,0.00,,SKC,0.04,VWS V14.01,2013-01-29 19:31:00,
2013-01-29 13:36:00,32.9,28.6,29.63,North,0,7.0,11.0,84,0.00,,SKC,0.04,VWS V14.01,2013-01-29 19:36:00,
2013-01-29 13:41:00,32.9,28.3,29.63,NE,37,5.0,8.0,83,0.00,,SKC,0.04,VWS V14.01,2013-01-29 19:41:00,
2013-01-29 13:46:00,33.2,28.6,29.63,North,359,5.0,8.0,83,0.00,,SKC,0.04,VWS V14.01,2013-01-29 19:46:00,
2013-01-29 13:51:00,33.2,28.6,29.63,North,3,8.0,8.0,83,0.01,,SKC,0.05,VWS V14.01,2013-01-29 19:51:00,
2013-01-29 13:56:00,33.2,28.3,29.63,North,350,8.0,10.0,82,0.01,,SKC,0.05,VWS V14.01,2013-01-29 19:56:00,
2013-01-29 13:57:00,33.1,28.2,29.63,North,353,8.0,10.0,82,0.01,,SKC,0.05,VWS V14.01,2013-01-29 19:57:00,
2013-01-29 14:02:00,33.2,28.3,29.62,North,0,6.0,8.0,82,0.01,,SKC,0.05,VWS V14.01,2013-01-29 20:02:00,
2013-01-29 14:07:00,33.4,28.5,29.62,North,0,10.0,10.0,82,0.01,,SKC,0.05,VWS V14.01,2013-01-29 20:07:00,
2013-01-29 14:12:00,33.1,28.2,29.62,North,0,7.0,10.0,82,0.01,,SKC,0.05,VWS V14.01,2013-01-29 20:12:00,
2013-01-29 14:17:00,33.1,28.2,29.62,North,0,7.0,11.0,82,0.01,,SKC,0.05,VWS V14.01,2013-01-29 20:17:00,
2013-01-29 14:22:00,32.9,27.7,29.62,North,359,5.0,11.0,81,0.01,,SKC,0.05,VWS V14.01,2013-01-29 20:22:00,
2013-01-29 14:27:00,33.1,27.9,29.62,NNW,344,6.0,11.0,81,0.01,,SKC,0.05,VWS V14.01,2013-01-29 20:27:00,
2013-01-29 14:32:00,33.1,27.6,29.64,North,359,6.0,8.0,80,0.01,,SKC,0.05,VWS V14.01,2013-01-29 20:32:00,
2013-01-29 14:36:00,32.9,27.4,29.64,NNW,347,8.0,12.0,80,0.01,,SKC,0.05,VWS V14.01,2013-01-29 20:36:00,
2013-01-29 14:41:00,33.1,27.6,29.64,NNW,342,9.0,11.0,80,0.01,,SKC,0.05,VWS V14.01,2013-01-29 20:41:00,
2013-01-29 14:46:00,33.1,27.6,29.63,North,0,6.0,12.0,80,0.01,,SKC,0.05,VWS V14.01,2013-01-29 20:46:00,
2013-01-29 14:51:00,32.8,27.0,29.63,North,4,7.0,11.0,79,0.00,,SKC,0.05,VWS V14.01,2013-01-29 20:51:00,
2013-01-29 14:56:00,32.7,27.2,29.63,North,10,7.0,12.0,80,0.00,,SKC,0.05,VWS V14.01,2013-01-29 20:56:00,
2013-01-29 15:01:00,32.1,26.6,29.63,NNE,17,7.0,10.0,80,0.00,,SKC,0.05,VWS V14.01,2013-01-29 21:01:00,
2013-01-29 15:06:00,31.9,26.7,29.63,NNE,31,6.0,12.0,81,0.00,,SKC,0.05,VWS V14.01,2013-01-29 21:06:00,
2013-01-29 15:11:00,31.5,26.0,29.63,NNE,23,7.0,10.0,80,0.00,,SKC,0.05,VWS V14.01,2013-01-29 21:11:00,
2013-01-29 15:16:00,31.5,26.4,29.65,NNE,23,6.0,13.0,81,0.00,,SKC,0.05,VWS V14.01,2013-01-29 21:16:00,
2013-01-29 15:21:00,31.6,26.1,29.65,North,4,7.0,9.0,80,0.00,,SKC,0.05,VWS V14.01,2013-01-29 21:21:00,
2013-01-29 15:26:00,31.6,26.1,29.65,North,0,10.0,11.0,80,0.00,,SKC,0.05,VWS V14.01,2013-01-29 21:26:00,
2013-01-29 15:31:00,31.2,26.1,29.65,NNE,17,4.0,9.0,81,0.00,,SKC,0.05,VWS V14.01,2013-01-29 21:31:00,
2013-01-29 15:36:00,30.9,25.5,29.65,NNE,14,8.0,14.0,80,0.00,,SKC,0.05,VWS V14.01,2013-01-29 21:36:00,
2013-01-29 15:41:00,30.7,25.3,29.65,North,0,10.0,15.0,80,0.00,,SKC,0.05,VWS V14.01,2013-01-29 21:41:00,
2013-01-29 15:46:00,30.6,25.5,29.66,NNE,14,10.0,15.0,81,0.00,,SKC,0.05,VWS V14.01,2013-01-29 21:46:00,
2013-01-29 15:51:00,30.4,25.3,29.66,NNE,16,4.0,16.0,81,0.00,,SKC,0.05,VWS V14.01,2013-01-29 21:51:00,
2013-01-29 15:56:00,30.1,25.3,29.66,North,4,7.0,16.0,82,0.00,,SKC,0.05,VWS V14.01,2013-01-29 21:56:00,
2013-01-29 16:01:00,30.0,24.9,29.67,North,357,12.0,13.0,81,0.00,,SKC,0.05,VWS V14.01,2013-01-29 22:01:00,
2013-01-29 16:06:00,29.7,24.6,29.67,North,4,10.0,13.0,81,0.00,,SKC,0.05,VWS V14.01,2013-01-29 22:06:00,
2013-01-29 16:11:00,29.5,24.4,29.67,NNE,18,4.0,10.0,81,0.00,,SKC,0.05,VWS V14.01,2013-01-29 22:11:00,
2013-01-29 16:16:00,29.3,24.5,29.67,NNE,14,5.0,13.0,82,0.00,,SKC,0.05,VWS V14.01,2013-01-29 22:16:00,
2013-01-29 16:21:00,29.0,24.2,29.67,NNE,23,5.0,11.0,82,0.00,,SKC,0.05,VWS V14.01,2013-01-29 22:21:00,
2013-01-29 16:26:00,29.0,24.5,29.67,NNE,13,7.0,12.0,83,0.00,,SKC,0.05,VWS V14.01,2013-01-29 22:26:00,
2013-01-29 16:31:00,29.0,24.8,29.67,NNE,27,6.0,13.0,84,0.00,,SKC,0.05,VWS V14.01,2013-01-29 22:31:00,
2013-01-29 16:36:00,29.0,24.8,29.67,NNE,20,7.0,13.0,84,0.00,,SKC,0.05,VWS V14.01,2013-01-29 22:36:00,
2013-01-29 16:41:00,28.8,24.6,29.67,NNE,13,6.0,11.0,84,0.00,,SKC,0.05,VWS V14.01,2013-01-29 22:41:00,
2013-01-29 16:46:00,28.7,24.8,29.67,NNE,16,2.0,11.0,85,0.00,,SKC,0.05,VWS V14.01,2013-01-29 22:46:00,
2013-01-29 16:51:00,28.5,24.6,29.67,NNE,13,5.0,8.0,85,0.00,,SKC,0.05,VWS V14.01,2013-01-29 22:51:00,
2013-01-29 16:56:00,28.5,24.3,29.67,NNE,16,7.0,12.0,84,0.00,,SKC,0.05,VWS V14.01,2013-01-29 22:56:00,
2013-01-29 17:01:00,28.4,23.9,29.67,NNE,21,9.0,12.0,83,0.00,,SKC,0.05,VWS V14.01,2013-01-29 23:01:00,
2013-01-29 17:06:00,28.2,24.0,29.67,North,0,9.0,16.0,84,0.00,,SKC,0.05,VWS V14.01,2013-01-29 23:06:00,
2013-01-29 17:11:00,28.1,23.6,29.67,NNE,20,7.0,12.0,83,0.00,,SKC,0.05,VWS V14.01,2013-01-29 23:11:00,
2013-01-29 17:16:00,28.1,23.6,29.67,North,1,10.0,14.0,83,0.00,,SKC,0.05,VWS V14.01,2013-01-29 23:16:00,
2013-01-29 17:21:00,28.1,23.9,29.67,NNE,16,10.0,12.0,84,0.00,,SKC,0.05,VWS V14.01,2013-01-29 23:21:00,
2013-01-29 17:26:00,28.1,23.9,29.67,North,10,6.0,12.0,84,0.00,,SKC,0.05,VWS V14.01,2013-01-29 23:26:00,
2013-01-29 17:31:00,27.9,23.7,29.67,North,0,9.0,13.0,84,0.00,,SKC,0.05,VWS V14.01,2013-01-29 23:31:00,
2013-01-29 17:36:00,27.9,23.7,29.67,NNE,27,16.0,16.0,84,0.00,,SKC,0.05,VWS V14.01,2013-01-29 23:36:00,
2013-01-29 17:41:00,27.8,23.6,29.67,NNE,24,11.0,13.0,84,0.00,,SKC,0.05,VWS V14.01,2013-01-29 23:41:00,
2013-01-29 17:46:00,27.8,23.6,29.68,NNE,18,3.0,13.0,84,0.00,,SKC,0.05,VWS V14.01,2013-01-29 23:46:00,
2013-01-29 17:51:00,27.8,23.6,29.68,NNE,14,8.0,11.0,84,0.00,,SKC,0.05,VWS V14.01,2013-01-29 23:51:00,
2013-01-29 17:56:00,27.8,23.3,29.68,NNE,20,14.0,16.0,83,0.00,,SKC,0.05,VWS V14.01,2013-01-29 23:56:00,
2013-01-29 18:01:00,27.6,23.1,29.69,NNE,13,5.0,13.0,83,0.00,,SKC,0.05,VWS V14.01,2013-01-30 00:01:00,
2013-01-29 18:06:00,27.6,23.1,29.69,NE,41,8.0,18.0,83,0.00,,SKC,0.05,VWS V14.01,2013-01-30 00:06:00,
2013-01-29 18:11:00,27.8,23.6,29.69,NNE,25,13.0,13.0,84,0.00,,SKC,0.05,VWS V14.01,2013-01-30 00:11:00,
2013-01-29 18:16:00,27.6,23.4,29.69,North,7,10.0,14.0,84,0.00,,SKC,0.05,VWS V14.01,2013-01-30 00:16:00,
2013-01-29 18:21:00,27.8,23.6,29.69,North,356,6.0,12.0,84,0.00,,SKC,0.05,VWS V14.01,2013-01-30 00:21:00,
2013-01-29 18:26:00,27.8,23.6,29.69,North,10,10.0,12.0,84,0.00,,SKC,0.05,VWS V14.01,2013-01-30 00:26:00,
2013-01-29 18:31:00,27.8,23.6,29.70,NNE,31,5.0,12.0,84,0.00,,SKC,0.05,VWS V14.01,2013-01-30 00:31:00,
2013-01-29 18:36:00,27.8,23.6,29.70,NNE,32,7.0,13.0,84,0.00,,SKC,0.05,VWS V14.01,2013-01-30 00:36:00,
2013-01-29 18:41:00,27.9,23.7,29.70,NE,38,4.0,8.0,84,0.00,,SKC,0.05,VWS V14.01,2013-01-30 00:41:00,
2013-01-29 18:46:00,27.9,24.0,29.71,NNE,30,6.0,11.0,85,0.00,,SKC,0.05,VWS V14.01,2013-01-30 00:46:00,
2013-01-29 18:51:00,27.9,23.7,29.71,North,0,6.0,8.0,84,0.00,,SKC,0.05,VWS V14.01,2013-01-30 00:51:00,
2013-01-29 18:56:00,27.9,23.7,29.71,NNE,20,12.0,14.0,84,0.00,,SKC,0.05,VWS V14.01,2013-01-30 00:56:00,
2013-01-29 19:01:00,27.9,23.7,29.71,NNE,14,6.0,7.0,84,0.00,,SKC,0.05,VWS V14.01,2013-01-30 01:01:00,
2013-01-29 19:06:00,27.8,23.9,29.71,North,0,10.0,10.0,85,0.00,,SKC,0.05,VWS V14.01,2013-01-30 01:06:00,
2013-01-29 19:11:00,27.8,23.9,29.71,NNE,23,3.0,10.0,85,0.00,,SKC,0.05,VWS V14.01,2013-01-30 01:11:00,
2013-01-29 19:16:00,27.8,23.6,29.70,NNE,30,6.0,11.0,84,0.00,,SKC,0.05,VWS V14.01,2013-01-30 01:16:00,
2013-01-29 19:21:00,27.6,23.4,29.70,NNE,31,5.0,11.0,84,0.00,,SKC,0.05,VWS V14.01,2013-01-30 01:21:00,
2013-01-29 19:26:00,27.6,23.7,29.70,NNE,27,7.0,11.0,85,0.00,,SKC,0.05,VWS V14.01,2013-01-30 01:26:00,
2013-01-29 19:31:00,27.6,23.4,29.71,North,8,10.0,12.0,84,0.00,,SKC,0.05,VWS V14.01,2013-01-30 01:31:00,
2013-01-29 19:36:00,27.6,23.4,29.71,North,7,11.0,12.0,84,0.00,,SKC,0.05,VWS V14.01,2013-01-30 01:36:00,
2013-01-29 19:41:00,27.6,23.1,29.71,North,6,7.0,9.0,83,0.00,,SKC,0.05,VWS V14.01,2013-01-30 01:41:00,
2013-01-29 19:46:00,27.5,23.0,29.72,North,4,3.0,11.0,83,0.00,,SKC,0.05,VWS V14.01,2013-01-30 01:46:00,
2013-01-29 19:51:00,27.5,23.0,29.72,North,1,7.0,12.0,83,0.00,,SKC,0.05,VWS V14.01,2013-01-30 01:51:00,
2013-01-29 19:56:00,27.3,22.8,29.72,North,1,6.0,12.0,83,0.00,,SKC,0.05,VWS V14.01,2013-01-30 01:56:00,
2013-01-29 20:01:00,27.3,22.8,29.73,North,11,8.0,16.0,83,0.00,,SKC,0.05,VWS V14.01,2013-01-30 02:01:00,
2013-01-29 20:06:00,27.2,22.7,29.73,North,4,8.0,16.0,83,0.00,,SKC,0.05,VWS V14.01,2013-01-30 02:06:00,
2013-01-29 20:11:00,27.2,22.7,29.73,North,7,10.0,12.0,83,0.00,,SKC,0.05,VWS V14.01,2013-01-30 02:11:00,
2013-01-29 20:16:00,27.0,22.5,29.72,North,6,7.0,13.0,83,0.00,,SKC,0.05,VWS V14.01,2013-01-30 02:16:00,
2013-01-29 20:21:00,27.0,22.5,29.72,NNE,21,11.0,12.0,83,0.00,,SKC,0.05,VWS V14.01,2013-01-30 02:21:00,
2013-01-29 20:26:00,26.9,22.4,29.72,North,356,8.0,16.0,83,0.00,,SKC,0.05,VWS V14.01,2013-01-30 02:26:00,
2013-01-29 20:31:00,26.7,22.5,29.74,NNE,18,7.0,11.0,84,0.00,,SKC,0.05,VWS V14.01,2013-01-30 02:31:00,
2013-01-29 20:36:00,26.6,22.4,29.74,NNE,14,7.0,12.0,84,0.00,,SKC,0.05,VWS V14.01,2013-01-30 02:36:00,
2013-01-29 20:41:00,26.6,22.4,29.74,North,0,6.0,11.0,84,0.00,,SKC,0.05,VWS V14.01,2013-01-30 02:41:00,
2013-01-29 20:46:00,26.4,22.2,29.74,North,8,4.0,16.0,84,0.00,,SKC,0.05,VWS V14.01,2013-01-30 02:46:00,
2013-01-29 20:51:00,26.4,22.2,29.74,North,0,10.0,11.0,84,0.00,,SKC,0.05,VWS V14.01,2013-01-30 02:51:00,
2013-01-29 20:56:00,26.3,22.1,29.74,NNE,20,7.0,13.0,84,0.00,,SKC,0.05,VWS V14.01,2013-01-30 02:56:00,
2013-01-29 21:01:00,26.3,22.1,29.75,NNE,30,6.0,11.0,84,0.00,,SKC,0.05,VWS V14.01,2013-01-30 03:01:00,
2013-01-29 21:06:00,26.1,21.9,29.75,North,4,5.0,11.0,84,0.00,,SKC,0.05,VWS V14.01,2013-01-30 03:06:00,
2013-01-29 21:11:00,26.0,21.8,29.75,North,3,5.0,8.0,84,0.00,,SKC,0.05,VWS V14.01,2013-01-30 03:11:00,
2013-01-29 21:16:00,26.0,21.8,29.74,North,0,4.0,12.0,84,0.00,,SKC,0.05,VWS V14.01,2013-01-30 03:16:00,
2013-01-29 21:21:00,25.8,21.6,29.74,North,7,13.0,13.0,84,0.00,,SKC,0.05,VWS V14.01,2013-01-30 03:21:00,
2013-01-29 21:26:00,25.7,21.5,29.74,NNE,17,7.0,13.0,84,0.00,,SKC,0.05,VWS V14.01,2013-01-30 03:26:00,
2013-01-29 21:31:00,25.7,21.5,29.72,North,8,7.0,11.0,84,0.00,,SKC,0.05,VWS V14.01,2013-01-30 03:31:00,
2013-01-29 21:36:00,25.7,21.5,29.72,North,3,3.0,13.0,84,0.00,,SKC,0.05,VWS V14.01,2013-01-30 03:36:00,
2013-01-29 21:41:00,25.6,21.5,29.72,NNE,17,7.0,13.0,84,0.00,,SKC,0.05,VWS V14.01,2013-01-30 03:41:00,
2013-01-29 21:46:00,25.6,21.7,29.73,North,0,9.0,14.0,85,0.00,,SKC,0.05,VWS V14.01,2013-01-30 03:46:00,
2013-01-29 21:51:00,25.4,21.5,29.73,North,10,6.0,10.0,85,0.00,,SKC,0.05,VWS V14.01,2013-01-30 03:51:00,
2013-01-29 21:56:00,25.3,21.7,29.73,NNE,17,8.0,12.0,86,0.00,,SKC,0.05,VWS V14.01,2013-01-30 03:56:00,
2013-01-29 22:01:00,25.1,21.2,29.74,North,7,7.0,8.0,85,0.00,,SKC,0.05,VWS V14.01,2013-01-30 04:01:00,
2013-01-29 22:05:00,25.1,21.5,29.74,North,356,8.0,13.0,86,0.00,,SKC,0.05,VWS V14.01,2013-01-30 04:05:00,
2013-01-29 22:10:00,24.8,20.9,29.74,North,0,6.0,11.0,85,0.00,,SKC,0.05,VWS V14.01,2013-01-30 04:10:00,
2013-01-29 22:15:00,24.8,20.9,29.76,North,0,5.0,16.0,85,0.00,,SKC,0.05,VWS V14.01,2013-01-30 04:15:00,
2013-01-29 22:20:00,24.7,21.1,29.76,NNE,14,3.0,8.0,86,0.00,,SKC,0.05,VWS V14.01,2013-01-30 04:20:00,
2013-01-29 22:25:00,24.5,20.6,29.76,North,0,9.0,11.0,85,0.00,,SKC,0.05,VWS V14.01,2013-01-30 04:25:00,
2013-01-29 22:30:00,24.4,20.5,29.77,NNW,347,11.0,12.0,85,0.00,,SKC,0.05,VWS V14.01,2013-01-30 04:30:00,
2013-01-29 22:35:00,24.4,20.5,29.77,North,1,7.0,12.0,85,0.00,,SKC,0.05,VWS V14.01,2013-01-30 04:35:00,
2013-01-29 22:40:00,24.2,20.4,29.77,North,350,7.0,8.0,85,0.00,,SKC,0.05,VWS V14.01,2013-01-30 04:40:00,
2013-01-29 22:45:00,24.1,20.5,29.77,North,8,11.0,12.0,86,0.00,,SKC,0.05,VWS V14.01,2013-01-30 04:45:00,
2013-01-29 22:50:00,24.1,20.2,29.77,North,3,6.0,11.0,85,0.00,,SKC,0.05,VWS V14.01,2013-01-30 04:50:00,
2013-01-29 22:55:00,23.9,20.3,29.77,North,359,6.0,13.0,86,0.00,,SKC,0.05,VWS V14.01,2013-01-30 04:55:00,
2013-01-29 23:00:00,23.9,20.3,29.76,North,0,9.0,13.0,86,0.00,,SKC,0.05,VWS V14.01,2013-01-30 05:00:00,
2013-01-29 23:01:00,23.9,20.3,29.76,North,0,6.0,9.0,86,0.00,,SKC,0.05,VWS V14.01,2013-01-30 05:01:00,
2013-01-29 23:03:00,23.9,20.3,29.76,North,0,11.0,11.0,86,0.00,,SKC,0.05,VWS V14.01,2013-01-30 05:03:00,
2013-01-29 23:08:00,23.9,20.3,29.76,North,10,7.0,16.0,86,0.00,,SKC,0.05,VWS V14.01,2013-01-30 05:08:00,
2013-01-29 23:13:00,23.9,20.3,29.76,NNE,28,10.0,10.0,86,0.00,,SKC,0.05,VWS V14.01,2013-01-30 05:13:00,
2013-01-29 23:18:00,23.9,20.3,29.75,NNE,20,9.0,14.0,86,0.00,,SKC,0.05,VWS V14.01,2013-01-30 05:18:00,
2013-01-29 23:23:00,23.9,20.3,29.75,NNE,27,7.0,10.0,86,0.00,,SKC,0.05,VWS V14.01,2013-01-30 05:23:00,
2013-01-29 23:28:00,23.9,20.1,29.75,North,356,11.0,14.0,85,0.00,,SKC,0.05,VWS V14.01,2013-01-30 05:28:00,
2013-01-29 23:33:00,23.9,20.1,29.74,ENE,58,7.0,10.0,85,0.00,,SKC,0.05,VWS V14.01,2013-01-30 05:33:00,
2013-01-29 23:38:00,23.8,19.7,29.74,North,11,6.0,13.0,84,0.00,,SKC,0.05,VWS V14.01,2013-01-30 05:38:00,
2013-01-29 23:43:00,23.8,19.7,29.74,NNE,23,8.0,12.0,84,0.00,,SKC,0.05,VWS V14.01,2013-01-30 05:43:00,
2013-01-29 23:48:00,23.8,19.7,29.73,North,0,6.0,12.0,84,0.00,,SKC,0.05,VWS V14.01,2013-01-30 05:48:00,
2013-01-29 23:53:00,23.8,19.7,29.73,NNE,24,8.0,13.0,84,0.00,,SKC,0.05,VWS V14.01,2013-01-30 05:53:00,
2013-01-29 23:58:00,23.8,19.7,29.73,North,4,13.0,14.0,84,0.00,,SKC,0.05,VWS V14.01,2013-01-30 05:58:00,